Theta_e
322 321 320 319 319 319 319 319 318 318 318 318 319 318 320 323 322 320 320 322 325 327 327 327 326 327 327 327 326 326 326 326 326 327 326 326 325 324 327 327 326 326 325 324 324 323 325 327 324 317 310 310 312 312 312 311 311 312 312 314 316 318 319
321 320 319 319 319 318 318 318 318 318 318 318 318 318 319 321 320 318 318 320 324 325 325 326 325 325 325 326 326 325 325 326 327 327 327 327 326 326 327 326 324 322 322 324 325 322 322 325 324 319 312 310 311 310 309 308 308 308 309 310 311 313 315
319 318 319 318 318 318 318 318 317 317 317 317 317 317 318 319 318 318 318 319 322 323 323 323 324 324 324 324 324 324 325 326 326 327 327 327 327 327 327 326 322 317 315 317 317 316 315 314 316 315 310 309 311 310 309 308 306 306 307 308 308 309 309
318 318 318 318 318 318 317 316 317 316 317 316 316 317 317 317 317 318 318 319 320 321 321 321 321 322 321 322 323 323 323 324 325 326 326 327 326 325 324 322 318 314 312 310 309 309 309 309 312 311 308 308 310 310 310 309 307 307 306 306 306 306 306
318 316 315 317 317 317 316 315 316 316 315 315 316 316 316 317 317 317 318 319 320 320 320 320 320 320 320 321 321 319 319 321 322 323 324 324 323 320 317 314 312 311 310 308 307 308 307 307 308 309 307 308 308 309 310 310 308 308 307 305 305 304 304
317 314 312 315 316 317 316 315 315 315 315 315 316 317 316 316 316 316 318 319 319 319 319 319 318 319 320 319 318 315 314 315 317 318 318 318 316 314 311 309 308 308 308 308 307 306 306 304 305 306 307 307 308 308 309 308 307 307 307 306 304 304 303
316 313 311 312 314 316 316 316 315 315 315 314 315 314 313 313 314 315 317 318 318 318 317 317 316 316 317 316 316 314 312 311 311 311 311 311 309 308 307 306 306 305 305 306 304 303 304 304 305 306 306 306 306 305 307 307 306 306 306 306 305 304 303
316 314 313 311 313 315 316 316 316 315 315 313 313 312 312 312 310 310 313 315 314 313 312 311 311 312 313 314 313 310 307 307 307 307 307 306 304 303 302 302 302 301 302 303 304 305 305 305 306 306 305 307 307 306 305 306 307 306 306 306 304 303 302
315 315 314 312 312 315 316 316 316 315 314 313 312 312 312 310 307 307 308 308 306 305 304 303 304 305 307 308 306 303 303 303 304 304 304 302 300 300 300 300 300 300 301 304 305 306 306 306 307 307 306 307 309 310 311 309 307 306 306 305 304 303 301
316 316 316 313 312 314 315 315 315 313 312 313 313 312 311 309 307 307 307 305 304 302 300 300 302 302 303 303 303 302 302 302 302 302 302 301 300 301 301 301 301 302 303 306 306 306 307 306 307 308 308 307 307 311 315 313 309 307 306 304 303 301 299
315 314 316 315 313 314 313 314 315 312 311 312 312 311 310 309 309 309 308 307 306 303 301 302 302 302 302 303 303 303 302 302 302 303 302 302 302 302 303 303 304 304 306 306 306 307 306 306 306 306 308 307 306 308 310 311 310 307 305 304 302 299 296
314 312 315 317 315 314 312 312 313 311 310 310 311 311 310 310 310 310 309 309 308 306 304 303 302 302 303 303 303 302 302 302 302 302 303 303 303 303 303 304 305 306 306 306 306 306 305 305 306 306 307 307 306 306 306 307 308 306 304 303 300 297 295
316 314 315 317 316 315 313 311 311 310 309 309 309 310 310 310 311 310 310 309 310 309 308 306 303 302 304 305 304 304 303 302 302 303 303 304 304 304 302 303 305 306 306 306 305 305 305 305 306 306 306 306 305 305 304 304 305 304 303 301 297 295 295
316 316 317 317 317 315 314 313 311 310 309 309 309 308 309 310 311 311 310 310 311 311 310 309 306 304 306 307 308 308 307 305 304 304 304 304 304 304 304 304 304 304 304 304 303 304 304 305 305 305 305 306 305 305 305 304 303 302 301 299 296 295 295
315 317 318 318 318 316 315 315 314 313 311 310 309 308 309 310 310 311 310 310 311 311 310 310 309 307 307 308 309 309 308 307 307 306 307 306 305 305 305 305 305 305 305 304 304 304 304 305 305 305 305 305 306 305 305 304 301 299 297 296 295 295 296
316 317 318 317 318 318 317 317 315 314 313 312 311 309 309 310 311 311 310 309 310 311 311 310 310 308 308 308 309 309 309 309 308 308 308 309 308 306 306 306 306 306 306 306 305 305 305 305 304 305 305 305 306 305 304 303 300 298 296 296 296 296 296
316 317 317 317 318 318 317 317 317 315 314 314 313 311 310 311 312 312 311 309 309 309 310 310 310 309 308 309 309 309 310 310 309 309 309 309 309 308 308 307 307 306 306 306 306 306 306 305 305 305 305 305 305 305 303 302 300 299 298 297 297 296 296
316 316 317 317 318 317 317 317 317 316 315 314 314 313 312 311 312 313 313 311 309 309 309 309 310 310 309 310 310 310 310 310 310 310 310 309 309 309 309 309 308 307 306 306 306 307 306 306 306 305 305 305 305 304 303 301 300 301 300 299 297 296 297
316 317 318 318 318 317 317 317 317 317 315 314 314 313 313 313 312 313 313 312 312 311 310 309 309 310 310 311 310 310 310 310 310 310 310 310 310 310 310 310 309 309 308 307 307 307 307 306 306 306 305 305 304 303 303 301 301 302 302 300 298 297 297
316 317 317 317 318 317 316 317 317 316 316 315 315 314 314 314 313 314 313 313 313 313 313 313 312 312 312 312 311 311 311 310 310 310 311 311 310 311 311 311 311 310 309 308 308 308 307 307 306 306 305 305 304 303 302 301 301 302 302 300 298 298 298
317 317 316 316 317 317 316 317 316 316 316 316 316 316 316 315 314 314 314 314 314 314 314 314 315 315 315 314 314 314 313 312 313 312 312 312 312 312 312 312 313 312 311 309 309 309 308 307 307 306 305 305 304 303 302 301 302 302 301 300 299 299 299
317 317 317 317 317 317 316 316 316 316 316 315 315 316 317 316 315 316 316 315 315 316 315 315 314 314 315 316 316 316 316 315 315 315 315 315 315 314 314 314 315 315 314 312 309 308 308 308 307 307 306 305 304 303 302 302 303 303 301 300 299 299 299
318 318 318 318 317 317 317 317 317 316 315 315 315 316 317 316 316 317 316 315 315 316 315 315 313 313 314 316 316 316 315 315 315 314 314 315 316 316 316 316 316 315 316 315 311 308 308 308 307 307 307 306 304 303 302 302 303 303 301 300 299 299 299
318 318 318 318 318 318 318 317 317 316 316 316 315 316 317 316 316 316 315 313 315 315 315 315 314 313 314 316 316 316 317 317 316 316 316 317 317 317 317 317 317 316 316 316 313 310 308 307 307 307 306 305 304 303 302 303 302 302 301 300 299 299 298
318 318 318 318 318 317 317 317 317 317 317 316 316 317 317 316 316 315 314 314 314 315 316 315 314 314 316 316 316 315 314 314 316 316 317 317 318 318 318 318 317 317 316 316 314 312 309 307 307 307 305 304 303 302 302 302 302 301 301 300 300 299 298
318 318 318 318 318 317 317 317 317 317 316 316 316 317 317 316 315 315 314 314 315 316 316 315 315 316 316 315 312 309 309 311 313 315 316 316 317 317 317 317 316 316 315 315 314 312 309 307 306 305 304 303 302 301 301 302 302 301 300 300 300 299 298
318 318 317 317 317 317 317 317 316 316 316 317 317 317 317 316 316 316 315 315 316 316 316 315 316 316 315 311 308 306 307 311 313 313 314 315 315 315 314 314 314 313 313 312 311 309 307 306 305 304 303 302 301 301 301 301 301 300 300 299 299 297 297
317 317 317 317 317 317 317 316 316 317 317 317 317 317 317 317 317 317 316 316 316 316 316 316 316 314 312 310 308 305 306 308 309 310 311 312 312 313 312 312 312 311 310 309 308 307 306 305 304 303 302 301 300 300 301 301 300 299 299 298 298 297 297
315 316 316 317 317 317 317 316 317 317 317 317 317 317 316 316 316 316 316 316 316 316 316 316 315 312 311 310 309 307 306 307 307 308 310 310 310 311 311 311 310 308 307 306 305 304 304 304 303 302 301 300 300 300 300 300 299 298 298 297 297 296 296
313 314 316 316 316 316 316 317 317 316 316 316 315 315 314 314 314 314 315 315 315 315 316 315 313 312 311 310 309 308 308 307 307 308 309 309 309 309 309 309 308 306 305 304 303 303 303 303 302 301 301 300 300 300 299 299 298 297 296 296 295 295 294
312 313 314 315 314 314 314 314 313 313 313 313 313 312 313 312 312 313 313 313 314 315 314 313 312 312 311 310 309 309 308 308 308 308 308 308 308 307 306 306 305 304 304 303 303 303 303 302 301 301 301 301 300 299 298 297 296 296 295 295 294 293 293
310 310 311 311 310 310 310 309 308 309 309 310 310 309 310 310 311 311 312 312 312 313 313 313 312 312 311 310 309 309 308 308 308 308 307 307 306 305 304 303 303 302 302 302 302 301 301 301 301 300 300 299 298 298 296 296 295 294 294 294 293 293 292
308 307 307 307 307 307 306 306 306 306 307 307 307 307 307 307 308 310 311 311 312 313 313 312 312 311 310 309 309 308 308 307 307 307 306 305 304 303 303 302 301 301 301 301 300 300 300 299 299 298 298 298 297 296 295 294 294 293 293 293 292 292 292
307 306 306 306 306 306 306 306 305 305 306 306 306 306 306 305 305 307 309 310 311 312 312 311 311 310 309 308 307 307 306 306 306 305 305 303 303 302 301 301 300 300 299 299 299 299 298 298 297 297 296 295 295 294 293 293 293 293 292 292 292 291 291
305 306 306 305 305 305 305 305 306 306 306 305 304 304 305 304 304 305 306 308 310 310 310 310 309 309 308 308 307 306 306 305 304 304 303 302 301 301 300 300 299 298 298 298 297 297 297 296 296 295 294 294 293 293 293 293 292 292 292 291 291 291 291
305 305 306 306 305 306 305 305 306 306 306 305 305 304 305 305 304 304 305 306 307 308 308 309 309 309 309 308 307 306 306 305 304 303 302 301 300 299 298 298 297 297 296 296 296 296 295 294 294 293 293 293 293 292 292 292 292 291 291 291 291 290 290
303 304 304 304 305 305 305 306 306 306 306 306 306 306 306 305 304 304 304 304 305 306 307 308 309 309 308 307 306 305 304 304 303 301 300 299 299 298 297 296 296 296 296 295 295 294 294 293 293 292 292 292 292 292 291 291 291 291 290 290 290 289 289
Wind_Speed
15 13 11 10 8 7 6 5 4 4 4 3 3 2 3 6 7 5 3 2 4 5 4 5 5 6 6 6 7 7 7 7 5 4 5 8 8 6 6 6 6 5 4 4 4 4 3 1 3 6 11 16 16 17 19 21 22 21 20 18 16 14 12
16 14 13 12 10 8 7 6 5 4 4 3 3 3 4 6 5 4 2 1 4 6 7 7 7 7 7 6 6 6 6 6 6 3 3 7 8 8 8 8 8 8 8 8 7 7 5 3 1 2 6 14 19 22 25 27 27 26 25 24 23 22 20
17 16 15 13 11 10 9 8 7 6 5 4 4 4 5 5 5 5 4 3 5 8 9 9 9 9 8 7 6 5 5 5 6 5 5 6 7 6 6 6 9 10 9 8 9 9 8 6 4 1 2 6 9 15 21 25 27 28 27 26 25 25 24
19 18 17 15 14 12 11 10 9 8 7 5 5 6 7 7 7 6 6 5 7 8 9 10 10 9 8 8 7 8 7 7 7 7 8 8 8 8 8 7 9 9 8 9 9 9 8 6 4 1 2 3 5 8 13 17 22 26 27 27 26 25 25
19 18 18 18 17 15 14 13 11 10 8 8 8 8 9 8 7 7 7 7 8 7 8 8 8 8 7 7 9 11 11 10 11 10 11 11 10 11 11 10 10 10 11 11 10 10 10 8 6 3 3 4 4 6 9 11 16 20 24 27 26 25 24
19 17 17 18 17 17 16 15 13 12 11 11 11 11 10 9 7 6 7 8 8 8 8 8 8 8 8 8 10 11 12 12 12 12 12 12 11 11 11 11 11 11 12 11 9 10 10 10 10 6 4 6 5 6 9 10 13 16 18 23 25 25 25
17 16 16 16 17 17 17 16 14 13 13 12 12 11 9 8 7 7 8 9 9 9 8 8 8 8 9 9 10 9 10 10 10 10 11 11 11 10 10 10 11 11 11 10 10 11 11 11 12 7 5 6 7 8 9 10 15 17 14 17 22 24 24
16 15 14 13 15 16 16 15 15 13 13 13 12 11 9 7 7 8 9 9 9 9 8 9 9 9 9 9 9 8 9 9 9 10 10 10 11 11 10 10 11 12 12 11 12 13 13 13 14 11 7 5 5 7 6 7 13 17 14 13 18 23 23
14 14 13 12 14 15 15 14 14 13 13 13 12 11 9 8 8 9 10 10 10 10 10 10 10 10 10 9 9 10 10 10 9 10 11 11 12 12 11 11 12 14 14 14 14 14 14 14 14 14 13 9 6 3 3 5 7 11 14 14 16 21 21
12 11 13 14 14 15 14 14 14 13 13 14 14 12 11 9 9 9 10 10 11 11 11 11 11 11 11 10 11 11 11 11 10 11 11 11 12 12 12 12 13 15 15 14 14 13 13 13 12 12 13 13 11 5 2 3 3 5 11 14 15 18 20
8 6 11 16 16 16 15 14 14 13 13 13 14 13 12 11 10 9 9 9 9 10 10 10 10 10 10 10 11 11 12 12 12 12 11 11 12 12 13 13 13 14 14 13 12 11 10 10 9 9 9 10 12 9 5 3 2 3 8 11 14 16 18
10 10 14 19 21 19 17 15 14 13 12 12 13 13 12 12 11 10 9 8 7 7 8 8 9 9 9 9 10 11 12 11 12 13 12 11 11 11 12 13 12 12 12 10 9 8 8 8 7 8 8 8 9 10 9 6 3 3 6 9 11 14 16
18 20 20 22 24 21 19 17 15 14 13 12 12 13 13 12 11 11 10 9 7 7 6 6 7 8 7 7 8 8 9 9 9 10 10 10 10 10 11 12 12 11 10 8 7 6 6 7 7 8 8 8 8 9 9 8 5 3 5 6 9 13 14
24 25 24 23 25 24 21 19 16 15 14 13 12 13 13 12 11 11 10 9 8 7 7 6 6 7 6 6 6 6 6 6 5 6 7 6 7 8 9 10 10 10 8 7 6 5 5 5 6 7 7 6 8 8 8 8 7 5 4 5 8 13 13
25 28 25 24 25 25 23 22 19 16 15 14 13 13 13 13 12 11 11 11 10 9 9 8 7 7 6 5 5 5 5 4 4 4 4 4 5 6 6 6 6 7 7 6 5 4 4 4 4 5 5 5 6 7 7 8 7 6 6 6 9 13 14
25 27 25 24 26 26 24 23 22 19 16 15 14 14 14 14 13 11 11 11 11 10 10 10 10 8 7 7 6 5 5 4 4 4 4 4 4 5 5 5 4 4 5 4 3 3 2 2 2 2 3 3 5 6 7 8 8 8 8 8 9 13 14
23 26 28 26 25 26 25 23 23 21 18 18 18 17 16 15 15 13 12 12 12 11 10 11 11 10 9 9 9 8 7 6 6 6 6 6 6 6 6 6 5 5 5 5 4 3 3 2 2 0 1 2 3 4 5 7 9 9 10 9 9 12 14
24 27 29 26 23 24 25 23 23 23 20 18 18 19 18 17 16 15 13 12 11 12 12 12 11 11 11 11 12 12 11 10 10 10 9 9 9 9 9 9 8 8 7 7 7 7 6 5 4 3 1 1 1 2 4 6 8 9 10 11 9 10 13
25 24 25 24 21 21 23 23 21 20 19 16 15 16 16 15 14 13 10 7 7 8 10 11 12 12 11 12 14 15 15 14 13 13 13 12 12 12 13 13 12 12 12 11 10 10 9 8 7 5 4 2 1 1 2 4 7 9 10 10 9 10 12
23 22 24 26 23 20 22 22 20 18 16 13 12 13 14 13 12 12 10 8 8 10 12 12 11 11 11 12 14 17 17 17 16 16 15 15 15 15 15 16 16 16 16 16 14 13 12 11 9 7 6 4 3 2 1 3 5 8 8 8 8 10 12
26 25 27 28 24 21 21 20 19 18 14 10 10 13 15 15 13 10 9 10 12 13 13 13 12 14 14 14 16 18 19 18 18 18 18 18 18 18 18 19 19 20 20 20 19 17 15 14 12 10 8 6 5 3 1 1 4 6 7 7 7 8 10
28 27 26 26 24 23 21 19 19 15 14 17 20 19 19 18 17 15 12 11 15 17 15 13 13 16 18 18 18 19 18 19 19 19 19 19 19 20 21 21 22 22 22 22 22 21 19 17 15 13 11 9 7 6 3 1 3 5 6 6 6 7 10
25 26 25 25 25 24 22 22 21 15 17 24 27 26 24 22 21 19 15 15 21 23 20 18 19 21 21 19 17 17 18 18 19 19 19 19 19 20 20 21 21 22 22 23 23 23 22 20 18 15 12 10 9 8 6 3 3 4 5 5 6 7 9
23 24 25 25 25 25 24 24 20 17 20 25 27 28 26 23 23 22 21 24 26 26 24 23 23 23 22 19 18 18 16 15 14 15 16 17 17 17 17 17 18 19 20 21 21 23 23 22 19 16 13 10 9 8 6 5 4 4 4 6 6 7 7
24 24 24 23 23 23 23 20 17 18 23 26 28 28 24 22 24 24 25 27 25 24 25 23 21 22 21 18 17 14 11 10 11 12 13 14 15 16 16 16 16 16 17 18 19 20 22 21 18 16 13 10 8 8 7 6 5 5 6 7 8 8 8
24 23 21 21 21 21 21 19 18 20 23 24 24 23 21 21 22 23 24 25 24 24 24 22 21 20 17 13 9 7 7 8 9 9 10 11 12 14 14 15 15 14 14 15 16 17 19 19 18 15 12 11 10 9 7 6 5 6 7 8 9 9 8
21 20 20 20 20 21 20 19 18 19 20 20 20 19 19 19 21 22 22 22 22 21 21 21 20 15 10 5 2 4 5 5 5 5 6 6 7 8 9 10 11 11 11 12 13 14 15 18 18 15 12 11 10 8 6 6 6 7 8 9 9 9 8
19 17 16 16 18 19 19 18 18 18 18 18 18 16 16 18 18 18 18 18 18 19 19 17 13 10 8 3 2 3 3 3 4 4 5 6 7 7 7 7 8 8 9 10 10 10 14 16 15 13 12 11 9 8 7 7 7 7 8 8 8 7 7
17 16 16 16 17 18 17 17 17 17 17 16 15 15 16 17 16 15 16 16 16 16 14 12 12 10 6 1 1 2 3 4 4 5 6 7 8 8 8 7 6 5 6 6 8 10 12 12 11 10 10 9 8 8 7 6 6 5 5 5 5 5 6
12 14 16 16 15 13 13 14 14 14 14 13 13 14 15 14 13 12 12 13 13 12 13 13 12 9 5 2 1 1 2 4 5 6 7 7 8 8 8 6 5 3 2 5 8 9 8 8 8 8 8 8 7 6 5 5 5 4 4 4 5 6 7
7 10 13 12 12 11 12 12 12 12 13 13 13 13 13 12 11 10 10 10 11 11 12 11 10 8 5 4 2 1 1 2 3 4 5 5 6 6 5 4 2 1 2 4 5 6 6 6 6 6 6 6 6 5 4 4 4 4 5 5 6 6 7
7 10 12 13 13 14 14 14 14 13 13 14 14 13 12 12 11 11 10 9 9 10 10 9 9 7 5 4 3 2 1 1 1 1 2 2 2 2 2 2 2 2 2 3 3 3 3 3 3 3 4 4 4 3 3 3 4 4 5 6 7 7 8
12 14 14 15 15 16 16 16 15 14 14 14 14 13 12 11 11 11 10 9 8 9 9 9 8 7 6 5 4 2 1 1 0 1 1 1 1 1 2 2 2 2 2 2 2 2 1 1 1 2 2 2 2 2 3 3 4 5 6 7 8 8 9
14 16 15 15 16 16 15 15 14 14 14 14 14 14 14 13 12 11 10 9 8 8 9 9 8 7 6 5 4 4 3 2 1 2 3 3 3 3 3 3 3 3 2 2 1 1 0 0 1 1 1 1 1 2 3 4 5 6 7 8 9 10 11
11 14 14 14 14 13 14 14 15 14 15 15 15 15 14 13 11 11 10 9 9 9 8 7 6 5 4 4 4 3 2 2 2 3 3 3 4 4 4 4 4 4 3 2 1 1 0 1 2 2 2 2 2 3 3 5 6 7 8 9 11 12 13
8 11 13 14 15 14 13 13 14 14 15 15 15 14 12 10 9 8 8 8 6 5 5 4 3 3 3 4 4 3 2 2 3 3 3 3 5 5 6 5 5 4 2 1 1 2 2 2 2 2 1 1 2 3 4 6 7 8 9 11 12 13 15
9 9 10 11 13 14 14 14 14 14 14 13 13 12 11 10 9 8 7 5 4 4 3 4 5 6 6 6 5 4 3 3 3 3 3 4 6 6 6 6 4 2 1 1 2 2 2 2 1 1 1 1 2 3 5 7 8 10 11 12 14 16 17
Wind_Direction
185 183 183 184 185 189 189 181 172 154 137 125 132 135 153 155 145 137 142 161 154 139 132 132 126 124 131 147 163 172 184 194 198 202 188 181 183 173 145 131 127 129 128 120 109 112 125 98 49 47 52 62 67 67 70 70 69 69 68 65 63 60 57
181 179 179 183 187 193 196 186 181 176 159 154 163 166 168 161 152 152 167 189 165 149 138 131 127 125 130 139 155 171 181 190 187 176 162 164 167 170 158 137 126 117 104 101 100 95 95 96 102 342 42 68 75 73 72 71 69 68 68 68 66 65 63
177 177 175 177 181 187 189 182 176 172 168 175 179 177 176 171 170 175 173 153 146 143 136 131 129 130 135 137 140 154 161 171 176 166 149 149 149 149 149 137 123 115 103 95 91 86 85 89 105 145 44 68 78 72 66 65 64 63 63 65 64 62 60
178 176 175 175 177 181 181 175 170 167 167 176 182 177 173 168 164 166 166 150 141 140 135 131 132 132 131 128 123 122 124 130 141 144 139 138 137 127 123 123 114 109 105 99 89 86 91 95 106 118 53 73 95 76 66 64 61 58 58 57 57 56 54
185 183 181 179 179 179 176 169 166 164 163 168 172 170 166 161 158 157 160 156 147 145 144 141 139 138 133 126 118 113 111 114 118 121 123 124 125 120 114 109 103 98 95 94 89 85 87 93 102 103 56 69 92 70 67 72 62 55 52 49 49 49 47
191 191 188 186 184 181 177 172 168 165 162 164 166 165 162 159 160 163 163 159 154 150 148 147 141 135 133 127 118 112 107 107 110 111 114 118 118 113 108 103 98 93 88 84 81 82 85 86 87 93 80 73 83 73 69 71 65 59 52 44 42 43 42
194 195 194 193 189 186 184 180 176 172 167 166 166 164 162 163 170 173 169 163 160 159 155 151 141 131 131 129 123 119 111 109 113 113 114 117 113 105 103 101 95 92 90 87 83 82 85 80 73 82 108 88 74 73 72 67 61 56 50 41 37 37 37
197 198 197 200 197 193 191 189 187 183 176 173 171 169 169 174 178 174 172 169 164 162 156 150 146 143 144 143 136 129 120 119 121 116 112 112 108 102 101 102 100 99 98 96 92 86 82 77 70 70 91 107 80 60 57 63 60 51 44 39 34 32 33
199 201 199 208 210 204 201 200 199 194 187 182 181 180 181 182 177 168 164 162 155 150 146 141 139 144 149 148 142 132 123 123 120 113 111 109 104 102 103 104 104 104 104 102 96 90 84 80 74 67 68 81 94 77 33 43 55 47 39 35 31 29 28
201 213 209 214 219 215 211 209 209 204 195 190 188 187 185 181 175 168 162 155 150 147 145 142 140 142 145 144 140 133 127 126 121 115 116 115 108 105 106 107 106 106 108 106 99 94 90 83 81 75 68 69 77 95 102 39 39 41 36 30 27 25 23
204 238 231 228 227 222 217 216 217 214 203 196 194 190 186 184 178 175 169 161 156 152 150 150 148 147 147 145 141 136 133 131 127 122 123 122 116 112 112 112 112 112 112 111 105 99 94 88 84 83 79 73 73 83 107 107 58 45 41 32 26 22 18
200 212 227 232 230 225 224 221 221 222 213 203 200 195 192 190 186 185 182 175 170 164 160 158 157 154 151 148 144 139 137 136 132 128 128 128 124 122 121 119 121 123 121 118 112 101 95 94 92 89 90 86 77 78 92 105 90 43 43 37 27 22 19
210 215 226 231 230 228 227 224 222 226 221 214 212 207 202 200 197 196 194 190 187 184 178 170 165 164 160 153 149 142 139 140 136 130 129 131 131 130 129 128 129 130 130 127 118 107 102 100 98 99 100 95 87 81 82 89 96 85 65 43 27 26 27
218 226 232 232 231 229 228 225 222 225 225 222 222 218 212 209 208 208 208 209 208 207 205 198 186 183 180 170 163 155 148 146 145 138 133 133 137 141 139 135 133 132 131 130 125 118 113 110 106 104 103 94 87 80 68 71 83 91 78 49 30 31 32
223 230 233 235 233 230 229 226 220 221 228 228 226 226 222 216 216 219 220 222 221 220 219 214 209 206 204 202 191 182 175 168 170 174 167 157 151 156 161 155 143 138 138 134 128 127 122 119 119 109 101 85 73 68 53 52 64 67 59 43 30 32 33
224 227 230 234 234 232 230 228 223 219 222 227 227 227 225 220 220 225 228 230 229 226 224 222 224 225 225 231 231 219 213 207 208 218 217 210 197 187 191 195 182 165 167 166 154 153 152 140 141 109 92 67 52 54 42 37 44 51 47 36 25 27 30
226 229 228 228 232 235 231 228 227 221 218 222 224 222 223 223 222 226 231 234 233 231 229 227 231 238 243 252 258 253 249 247 247 252 252 249 244 237 232 227 220 210 203 211 218 220 226 221 223 228 86 63 41 44 36 27 31 38 38 33 28 25 24
229 234 231 228 233 238 235 230 229 227 222 221 219 217 220 222 222 226 230 235 239 239 239 236 236 243 249 257 266 268 266 265 266 268 267 265 264 261 261 257 249 238 228 229 232 233 235 236 234 234 215 171 49 35 26 20 23 25 24 24 27 22 17
228 232 232 235 239 238 233 230 227 225 224 222 217 214 217 221 222 222 223 238 264 270 265 259 252 250 254 260 267 271 272 272 273 274 274 274 274 273 274 275 270 259 250 246 244 241 238 235 232 229 222 214 208 4 12 19 21 17 13 16 17 14 11
228 227 226 233 241 235 225 222 218 213 211 214 215 216 221 224 220 219 223 242 278 298 294 284 277 272 272 275 276 276 276 274 273 274 276 277 276 276 277 280 278 271 264 260 256 252 245 239 236 232 228 226 219 226 348 26 23 13 9 11 9 4 5
224 224 220 224 231 224 215 212 206 197 194 211 234 235 230 225 221 228 238 244 259 272 273 276 283 283 282 284 285 282 279 277 277 276 276 276 275 274 275 277 279 275 271 266 262 257 252 246 239 229 225 228 229 232 235 39 20 8 2 359 358 354 353
219 219 215 214 213 207 205 204 199 197 208 229 242 242 232 228 231 237 241 249 254 251 249 261 273 274 279 284 286 285 283 281 281 279 277 276 274 273 272 272 273 274 273 270 263 257 253 249 243 235 230 228 229 233 230 249 347 353 348 339 336 336 337
207 207 205 203 199 195 195 194 193 200 212 220 231 236 231 231 234 232 229 238 248 245 239 243 251 257 269 279 282 285 285 280 277 274 272 272 269 269 269 267 268 271 274 272 264 256 251 247 243 238 236 235 233 234 233 246 297 323 322 312 309 315 322
196 193 190 188 187 186 185 184 188 199 203 209 224 231 228 227 227 226 226 229 237 240 235 235 241 249 261 271 277 283 282 274 270 268 267 269 270 272 273 271 272 272 274 275 269 258 249 244 239 233 230 234 236 235 239 249 268 291 290 281 284 290 297
185 182 181 183 185 185 186 191 199 203 201 207 218 221 220 220 220 223 227 228 233 238 236 235 241 251 261 268 274 279 275 268 269 269 271 273 276 279 280 279 278 275 275 277 275 264 251 239 230 224 222 223 223 227 238 250 264 277 271 264 270 275 276
188 190 197 203 204 200 202 209 212 208 206 209 213 213 214 218 218 221 225 228 235 239 237 239 250 259 263 263 266 273 274 275 276 277 280 282 282 283 285 286 286 285 283 281 278 269 250 229 215 211 211 213 217 225 238 255 274 280 271 266 268 269 268
205 209 215 217 213 208 206 206 207 206 207 208 210 213 218 220 220 222 225 231 238 241 242 249 256 255 243 230 268 306 295 293 300 308 310 308 304 302 302 302 302 301 298 291 282 265 236 214 204 204 208 213 220 229 244 261 272 270 265 265 267 266 267
224 223 222 217 211 207 206 206 207 207 206 206 210 217 222 224 225 227 231 237 241 245 248 250 241 216 195 184 9 357 346 344 345 349 353 353 350 344 335 330 325 317 307 293 273 239 212 203 203 207 212 217 226 237 246 255 259 261 263 265 266 269 277
237 233 227 222 217 215 214 211 207 206 205 208 215 220 222 227 230 232 234 236 237 238 232 215 195 184 180 174 10 23 27 20 13 9 9 9 9 6 359 351 346 335 306 267 224 203 201 206 210 214 218 223 233 241 247 253 259 266 271 273 277 286 294
242 232 224 221 218 213 208 203 201 201 201 202 207 209 210 212 213 213 214 214 210 203 192 184 184 186 178 169 216 323 19 23 18 12 10 10 11 10 6 2 3 355 280 221 202 200 211 219 221 225 229 232 237 243 248 260 270 276 283 292 301 307 308
240 223 212 206 199 193 187 184 183 183 182 178 174 175 176 174 171 172 176 178 178 180 183 187 191 191 179 175 203 240 59 35 20 15 13 10 7 9 14 24 39 61 194 195 199 209 217 221 229 236 237 237 241 246 249 262 274 285 297 306 313 316 316
226 208 197 186 180 177 173 168 164 161 163 163 158 156 159 159 157 159 166 173 178 185 193 197 194 191 184 174 171 162 123 64 35 28 12 3 5 25 43 77 100 112 149 166 178 194 199 211 232 239 243 245 243 239 247 267 284 295 305 311 315 318 319
217 205 197 187 180 177 172 167 164 162 162 162 158 154 152 151 150 152 158 168 179 189 196 197 194 192 185 172 162 153 140 125 147 191 198 204 190 155 148 144 126 118 131 146 157 171 183 217 243 241 249 253 240 241 267 292 303 310 317 320 320 320 320
219 215 213 199 186 182 180 176 172 169 167 165 161 156 152 148 143 141 144 152 164 176 184 187 186 184 178 171 167 165 171 183 202 210 203 197 189 175 166 161 153 150 151 150 151 155 167 271 308 312 320 327 316 309 313 317 321 324 323 321 320 318 316
231 225 222 208 193 187 185 183 179 175 171 167 161 154 149 142 135 134 138 145 154 161 168 172 175 177 178 180 183 191 200 198 196 206 206 191 178 168 162 160 160 159 157 148 137 112 30 351 340 336 341 345 341 334 328 323 322 323 320 319 319 317 316
244 226 216 209 206 203 196 187 182 179 176 171 165 157 150 144 141 141 142 143 145 148 154 165 182 198 207 212 217 224 227 213 205 208 200 181 172 164 162 163 160 157 152 123 59 23 7 358 351 350 356 347 330 321 319 319 320 322 322 322 321 320 320
242 222 209 203 200 198 196 192 189 187 186 181 173 165 162 160 158 156 152 150 153 162 178 195 204 209 212 215 219 226 228 217 208 199 179 166 165 166 166 164 159 155 143 20 10 4 11 27 37 55 57 5 335 326 323 325 326 326 325 325 324 323 323